This demonstration page uses our WeatherBlox Daily Observations layout. Learn more.

Left ArrowRight Arrow

38.89511, -77.03637

Hourly Observations for January 26, 2019

Temp ( °F °C ) Dew Point ( °F °C ) Humidity (%) Winds ( mph kmh ) Pressure ( in mb ) Visibility ( mi km ) Precip ( " mm )
12:52 am 00:52 Mostly Cloudy 31 -0.6 13 -10.6 47 47 SE 5 7 30.25 1024 10 16 0.00 0.00
1:52 am 01:52 Mostly Cloudy 30 -1.1 13 -10.6 49 49 SSE 3 6 30.26 1025 10 16 0.00 0.00
2:52 am 02:52 Mostly Cloudy 30 -1.1 10 -12.2 43 43 Calm 30.27 1025 10 16 0.00 0.00
3:52 am 03:52 Cloudy 29 -1.7 15 -9.4 56 56 Calm 30.26 1025 10 16 0.00 0.00
4:52 am 04:52 Mostly Cloudy 27 -2.8 18 -7.8 69 69 Calm 30.26 1025 10 16 0.00 0.00
5:52 am 05:52 Mostly Cloudy 27 -2.8 17 -8.3 66 66 Calm 30.26 1025 10 16 0.00 0.00
6:52 am 06:52 Mostly Cloudy 29 -1.7 15 -9.4 56 56 Calm 30.26 1025 10 16 0.00 0.00
7:52 am 07:52 Mostly Cloudy 28 -2.2 18 -7.8 66 66 NE 5 7 30.26 1025 10 16 0.00 0.00
8:52 am 08:52 Partly Cloudy 31 -0.6 19 -7.2 61 61 Calm 30.27 1025 10 16 0.00 0.00
9:52 am 09:52 Mostly Cloudy 34 1.1 18 -7.8 52 52 Calm 30.28 1025 10 16 0.00 0.00
10:19 am 10:19 Mostly Cloudy 35 1.7 16 -8.9 46 46 Calm 30.28 1025 10 16 0.00 0.00
10:52 am 10:52 Mostly Cloudy 36 2.2 15 -9.4 42 42 SSW 3 6 30.28 1025 10 16 0.00 0.00
11:52 am 11:52 Cloudy 37 2.8 15 -9.4 41 41 S 5 7 30.25 1025 10 16 0.00 0.00
12:52 pm 12:52 Mostly Cloudy 38 3.3 16 -8.9 41 41 SSE 5 7 30.22 1023 10 16 0.00 0.00
1:52 pm 13:52 Mostly Cloudy 39 3.9 12 -11.1 33 33 S 7 11 30.19 1022 10 16 0.00 0.00
2:52 pm 14:52 Mostly Cloudy 40 4.4 10 -12.2 29 29 SW 8 13 30.18 1022 10 16 0.00 0.00
3:52 pm 15:52 Mostly Cloudy 41 5 13 -10.6 32 32 S 7 11 30.19 1022 10 16 0.00 0.00
4:52 pm 16:52 Mostly Cloudy 39 3.9 14 -10 36 36 S 3 6 30.19 1022 10 16 0.00 0.00
5:52 pm 17:52 Mostly Cloudy 39 3.9 18 -7.8 43 43 Calm 30.19 1022 10 16 0.00 0.00
6:52 pm 18:52 Partly Cloudy 37 2.8 21 -6.1 52 52 ESE 8 13 30.20 1023 10 16 0.00 0.00
7:52 pm 19:52 Mostly Cloudy 36 2.2 20 -6.7 52 52 E 5 7 30.21 1023 10 16 0.00 0.00
8:52 pm 20:52 Partly Cloudy 35 1.7 18 -7.8 50 50 Calm 30.21 1023 10 16 0.00 0.00
9:52 pm 21:52 Mostly Clear 34 1.1 19 -7.2 54 54 Calm 30.21 1023 10 16 0.00 0.00
10:52 pm 22:52 Mostly Clear 32 0 21 -6.1 64 64 NE 5 7 30.20 1023 10 16 0.00 0.00
11:52 pm 23:52 Mostly Clear 31 -0.6 20 -6.7 64 64 ENE 6 9 30.18 1022 10 16 0.00 0.00

Powered by AerisWeather